Location: Unspecified
(45.3999°N, 88.1269°W)
Time: 16:18:53
(UTC-05:00)

Cosmos 2058 - Visible Passes

Search period start: 18 June 2018 00:00
Search period end: 28 June 2018 00:00
Orbit: 562 x 585 km, 82.5° (Epoch: 17 June)

Date Brightness Start Highest point End Pass type
(mag) Time Alt. Az. Time Alt. Az. Time Alt. Az.
18 Jun 2.8 00:36:01 66° SSE 00:36:34 81° E 00:40:44 10° N visible
19 Jun 2.9 00:39:04 60° SW 00:39:43 76° W 00:43:53 10° N visible
19 Jun 5.1 23:05:54 12° E 23:06:30 13° E 23:08:20 10° ENE visible
20 Jun 3.2 00:42:06 47° WSW 00:42:54 57° W 00:47:00 10° N visible
20 Jun 4.8 23:08:55 16° E 23:09:32 17° E 23:12:09 10° NE visible
21 Jun 3.7 00:45:07 36° WSW 00:46:05 43° WNW 00:50:04 10° N visible
21 Jun 4.4 23:11:55 20° ESE 23:12:35 21° E 23:15:44 10° NE visible
22 Jun 4.2 00:48:07 28° WSW 00:49:18 33° WNW 00:53:04 10° N visible
22 Jun 4.1 23:14:55 26° ESE 23:15:39 27° E 23:19:10 10° NNE visible
23 Jun 4.6 00:51:07 21° WSW 00:52:31 26° WNW 00:56:01 10° NNW visible
23 Jun 3.7 23:17:53 32° ESE 23:18:44 35° E 23:22:31 10° NNE visible
24 Jun 4.9 00:54:05 16° WSW 00:55:46 20° WNW 00:58:53 10° NNW visible
24 Jun 3.3 23:20:51 38° SE 23:21:50 47° E 23:25:49 10° NNE visible
25 Jun 5.3 00:57:02 12° W 00:59:03 16° WNW 01:01:38 10° NNW visible
25 Jun 2.9 23:23:47 42° SSE 23:24:57 63° E 23:29:03 10° NNE visible
26 Jun 5.5 01:00:33 10° W 01:02:20 12° WNW 01:04:06 10° NW visible
26 Jun 2.8 23:26:42 41° S 23:28:06 84° E 23:32:14 10° N visible
27 Jun 3.0 23:29:36 35° SSW 23:31:15 74° W 23:35:23 10° N visible
